Location: *
(51.8167°N, 12.5000°E)
Time: 07:05:16
(UTC+00:00)

Terra - Pass Details

Date: 16 September 2019
Orbit: 701 x 703 km, 98.2° (Epoch: 19 October)

Event Time Altitude Azimuth Distance (km) Brightness Sun altitude
Exits shadow 20:19:07 41° 46° (NE) 1,023 2.5 -25.4°
Drops below altitude 10° 20:23:01 10° 356° (N) 2,184 4.9 -25.8°
Sets 20:25:22 0° 350° (N) 3,107 6.0 -26.1°
